TimeMDT,TemperatureF,Dew PointF,Humidity,Sea Level PressureIn,VisibilityMPH,Wind Direction,Wind SpeedMPH,Gust SpeedMPH,PrecipitationIn,Events,Conditions,WindDirDegrees,DateUTC
12:08 AM,33.8,30.2,87,30.18,10.0,ESE,8.1,-,N/A,,Overcast,120,2013-04-03 06:08:00
12:53 AM,33.1,30.0,89,30.21,10.0,SE,4.6,-,N/A,,Overcast,130,2013-04-03 06:53:00
1:53 AM,33.1,30.9,92,30.20,9.0,ESE,4.6,-,N/A,,Overcast,120,2013-04-03 07:53:00
2:18 AM,33.8,30.2,87,30.16,5.0,SE,4.6,-,N/A,,Overcast,140,2013-04-03 08:18:00
2:50 AM,33.8,30.2,87,30.16,4.0,East,3.5,-,N/A,,Overcast,100,2013-04-03 08:50:00
2:53 AM,33.1,30.9,92,30.18,3.0,Calm,Calm,-,N/A,,Overcast,0,2013-04-03 08:53:00
3:14 AM,33.8,30.2,87,30.16,3.0,East,4.6,-,N/A,,Overcast,80,2013-04-03 09:14:00
3:24 AM,33.8,30.2,87,30.16,2.5,ENE,4.6,-,N/A,,Overcast,60,2013-04-03 09:24:00
3:30 AM,33.8,30.2,87,30.16,3.0,ENE,3.5,-,N/A,,Overcast,70,2013-04-03 09:30:00
3:53 AM,33.1,30.9,92,30.18,5.0,East,4.6,-,N/A,,Overcast,80,2013-04-03 09:53:00
4:06 AM,33.8,30.2,87,30.16,7.0,East,4.6,-,N/A,,Overcast,80,2013-04-03 10:06:00
4:53 AM,33.1,30.9,92,30.19,5.0,East,6.9,-,N/A,,Overcast,90,2013-04-03 10:53:00
5:53 AM,32.0,30.0,92,30.20,6.0,East,8.1,-,N/A,,Overcast,100,2013-04-03 11:53:00
6:39 AM,30.2,28.4,93,30.18,7.0,ESE,10.4,-,N/A,,Overcast,110,2013-04-03 12:39:00
6:53 AM,30.9,28.9,92,30.23,5.0,ESE,9.2,-,N/A,,Overcast,110,2013-04-03 12:53:00
7:10 AM,30.2,28.4,93,30.19,3.0,East,9.2,-,N/A,,Overcast,100,2013-04-03 13:10:00
7:19 AM,30.2,28.4,93,30.20,3.0,East,9.2,-,N/A,,Overcast,100,2013-04-03 13:19:00
7:53 AM,32.0,28.0,85,30.24,9.0,ESE,10.4,-,N/A,,Overcast,120,2013-04-03 13:53:00
8:34 AM,33.8,28.4,81,30.20,10.0,ESE,9.2,-,N/A,,Overcast,110,2013-04-03 14:34:00
8:53 AM,33.1,26.1,75,30.24,10.0,ESE,11.5,-,N/A,,Overcast,120,2013-04-03 14:53:00
9:04 AM,33.8,26.6,75,30.21,10.0,ESE,11.5,-,N/A,,Overcast,120,2013-04-03 15:04:00
9:48 AM,35.6,28.4,75,30.21,10.0,SE,10.4,-,N/A,,Overcast,130,2013-04-03 15:48:00
9:53 AM,34.0,27.0,75,30.25,10.0,ESE,9.2,-,N/A,,Overcast,120,2013-04-03 15:53:00
10:53 AM,35.1,28.0,76,30.25,10.0,Variable,5.8,-,N/A,,Overcast,0,2013-04-03 16:53:00
11:53 AM,37.0,28.9,73,30.24,10.0,SE,3.5,-,N/A,,Overcast,140,2013-04-03 17:53:00
12:53 PM,42.1,30.0,62,30.20,10.0,Variable,5.8,-,N/A,,Overcast,0,2013-04-03 18:53:00
1:53 PM,41.0,28.9,62,30.19,10.0,ENE,4.6,-,N/A,,Overcast,70,2013-04-03 19:53:00
2:53 PM,43.0,28.9,58,30.17,10.0,Calm,Calm,-,N/A,,Overcast,0,2013-04-03 20:53:00
3:19 PM,46.4,30.2,53,30.14,10.0,SE,6.9,-,N/A,,Scattered Clouds,140,2013-04-03 21:19:00
3:53 PM,46.9,28.9,50,30.13,10.0,Variable,5.8,-,N/A,,Partly Cloudy,0,2013-04-03 21:53:00
4:53 PM,46.9,28.9,50,30.13,10.0,SE,5.8,-,N/A,,Partly Cloudy,130,2013-04-03 22:53:00
5:53 PM,46.0,28.9,51,30.12,10.0,SE,9.2,-,N/A,,Clear,140,2013-04-03 23:53:00
6:53 PM,44.1,28.9,55,30.13,10.0,SE,3.5,-,N/A,,Clear,130,2013-04-04 00:53:00
7:53 PM,37.9,27.0,65,30.15,10.0,SE,8.1,-,N/A,,Clear,130,2013-04-04 01:53:00
8:53 PM,36.0,27.0,70,30.17,10.0,SSE,10.4,-,N/A,,Clear,150,2013-04-04 02:53:00
9:53 PM,33.1,26.1,75,30.19,10.0,SSW,6.9,-,N/A,,Clear,200,2013-04-04 03:53:00
10:53 PM,30.0,24.1,79,30.19,10.0,SSW,8.1,-,N/A,,Clear,200,2013-04-04 04:53:00
11:53 PM,28.9,24.1,82,30.18,9.0,South,8.1,-,N/A,,Clear,190,2013-04-04 05:53:00